Devils Lake, ND

11:05 PM CDT on March 27, 2017 (GMT -0500)
Devils Lake Municipal

Weather History for KDVL - May, 2014

Change the Weather History Date:

Thursday, May 1, 2014

  Actual Average Record
Temperature  
Mean Temperature 46 °F -  
Max Temperature 57 °F 59 °F 85 °F (1977)
Min Temperature 35 °F 36 °F 19 °F (1958)
Degree Days  
Heating Degree Days 19    
Moisture  
Dew Point 29 °F    
Average Humidity 52    
Maximum Humidity 70    
Minimum Humidity 33    
Precipitation  
Precipitation 0.00 in - - ()
Sea Level Pressure  
Sea Level Pressure 29.95 in    
Wind  
Wind Speed 14 mph (NNW)    
Max Wind Speed 22 mph    
Max Gust Speed 28 mph    
Visibility 10 miles    
Events      
Averages and records for this station are not official NWS values.
T = Trace of Precipitation, MM = Missing Value Source: NWS Daily Summary

Daily Weather History Graph

Daily Weather History Graph

Search for Another Location

Airport or City:

Trip Planner

Search our weather history database for the weather conditions in past years. The results will help you decide how hot, cold, wet, or windy it might be!

Date:

Astronomy

May. 01, 2014 Rise Set
Actual Time 6:17 AM CDT 8:49 PM CDT
Civil Twilight 5:42 AM CDT 9:24 PM CDT
Nautical Twilight 4:58 AM CDT 10:08 PM CDT
Astronomical Twilight 4:07 AM CDT 10:59 PM CDT
Moon 8:01 AM CDT (5/1) 11:28 PM CDT (5/1)
Length of Visible Light 15h 41m
Length of Day
14h 32m
Waxing Crescent, 7% of the Moon is Illuminated
May 1
Waxing Crescent
May 6
First Quarter
May 14
Full
May 21
Last Quarter
May 28
New

Hourly Weather History & Observations

Time (CDT) Temp. Windchill Dew Point Humidity Pressure Visibility Wind Dir Wind Speed Gust Speed Precip Events Conditions
12:15 AM 41.0 °F 33.9 °F 32.0 °F 70% 30.03 in 10.0 mi North 12.7 mph - N/A   Mostly Cloudy
12:35 AM 42.8 °F 35.1 °F 30.2 °F 61% 30.03 in 10.0 mi North 16.1 mph 21.9 mph N/A   Mostly Cloudy
12:55 AM 41.0 °F 33.1 °F 30.2 °F 65% 30.03 in 10.0 mi North 15.0 mph - N/A   Scattered Clouds
1:15 AM 41.0 °F 33.9 °F 30.2 °F 65% 30.03 in 10.0 mi North 12.7 mph - N/A   Scattered Clouds
1:35 AM 39.2 °F 31.6 °F 30.2 °F 70% 30.03 in 10.0 mi North 12.7 mph - N/A   Partly Cloudy
1:55 AM 39.2 °F 31.6 °F 30.2 °F 70% 30.03 in 10.0 mi North 12.7 mph - N/A   Scattered Clouds
2:15 AM 39.2 °F 31.6 °F 30.2 °F 70% 30.03 in 10.0 mi North 12.7 mph - N/A   Partly Cloudy
2:35 AM 39.2 °F 31.6 °F 28.4 °F 65% 30.02 in 10.0 mi North 12.7 mph - N/A   Clear
2:55 AM 37.4 °F 30.3 °F 28.4 °F 70% 30.02 in 10.0 mi NNW 10.4 mph - N/A   Scattered Clouds
3:15 AM 37.4 °F 30.3 °F 28.4 °F 70% 30.02 in 10.0 mi NNW 10.4 mph - N/A   Overcast
3:35 AM 39.2 °F 31.2 °F 28.4 °F 65% 30.02 in 10.0 mi NNW 13.8 mph - N/A   Overcast
3:55 AM 37.4 °F 29.3 °F 28.4 °F 70% 30.02 in 10.0 mi NNW 12.7 mph - N/A   Overcast
4:15 AM 39.2 °F 30.8 °F 26.6 °F 61% 30.01 in 10.0 mi North 15.0 mph - N/A   Overcast
4:35 AM 39.2 °F 31.6 °F 26.6 °F 61% 30.01 in 10.0 mi NNW 12.7 mph - N/A   Overcast
4:55 AM 37.4 °F 28.9 °F 24.8 °F 60% 30.01 in 10.0 mi NNW 13.8 mph - N/A   Overcast
5:15 AM 37.4 °F 28.9 °F 24.8 °F 60% 30.01 in 10.0 mi NNW 13.8 mph 18.4 mph N/A   Overcast
5:35 AM 37.4 °F 28.5 °F 24.8 °F 60% 30.01 in 10.0 mi NNW 15.0 mph 19.6 mph N/A   Overcast
5:55 AM 37.4 °F 27.8 °F 24.8 °F 60% 30.01 in 10.0 mi NNW 17.3 mph - N/A   Overcast
6:15 AM 37.4 °F 28.5 °F 23.0 °F 56% 30.01 in 10.0 mi NNW 15.0 mph - N/A   Overcast
6:35 AM 37.4 °F 28.9 °F 23.0 °F 56% 30.02 in 10.0 mi NNW 13.8 mph - N/A   Scattered Clouds
6:55 AM 35.6 °F 27.1 °F 23.0 °F 60% 30.02 in 10.0 mi North 12.7 mph - N/A   Clear
7:15 AM 37.4 °F 28.5 °F 23.0 °F 56% 30.02 in 10.0 mi North 15.0 mph - N/A   Clear
7:35 AM 37.4 °F 28.5 °F 23.0 °F 56% 30.02 in 10.0 mi North 15.0 mph - N/A   Clear
7:55 AM 37.4 °F 28.5 °F 23.0 °F 56% 30.02 in 10.0 mi North 15.0 mph - N/A   Clear
8:15 AM 39.2 °F 30.8 °F 24.8 °F 56% 30.02 in 10.0 mi NNW 15.0 mph - N/A   Clear
8:35 AM 39.2 °F 31.2 °F 24.8 °F 56% 30.02 in 10.0 mi North 13.8 mph - N/A   Clear
8:55 AM 41.0 °F 32.5 °F 24.8 °F 53% 30.01 in 10.0 mi NNW 17.3 mph - N/A   Clear
9:15 AM 42.8 °F 34.5 °F 26.6 °F 53% 30.01 in 10.0 mi NNW 18.4 mph 24.2 mph N/A   Clear
9:55 AM 44.6 °F 36.9 °F 28.4 °F 53% 30.01 in 10.0 mi NNW 18.4 mph 23.0 mph N/A   Clear
10:15 AM 44.6 °F 36.9 °F 28.4 °F 53% 30.01 in 10.0 mi North 18.4 mph - N/A   Clear
10:35 AM 44.6 °F 36.4 °F 30.2 °F 57% 30.01 in 3.0 mi NNW 20.7 mph 24.2 mph N/A   Clear
10:55 AM 46.4 °F 38.7 °F 30.2 °F 53% 30.01 in 10.0 mi North 20.7 mph - N/A   Clear
11:15 AM 46.4 °F 38.5 °F 30.2 °F 53% 30.00 in 10.0 mi NNW 21.9 mph - N/A   Clear
11:35 AM 48.2 °F - 30.2 °F 50% 30.00 in 10.0 mi NNW 19.6 mph 27.6 mph N/A   Clear
11:55 AM 48.2 °F - 30.2 °F 50% 30.01 in 10.0 mi NNW 21.9 mph 26.5 mph N/A   Clear
12:15 PM 48.2 °F - 30.2 °F 50% 30.00 in 10.0 mi North 15.0 mph 25.3 mph N/A   Clear
12:35 PM 48.2 °F - 30.2 °F 50% 29.99 in 10.0 mi NNW 18.4 mph 25.3 mph N/A   Clear
12:55 PM 50.0 °F - 32.0 °F 50% 29.99 in 10.0 mi NNW 19.6 mph 23.0 mph N/A   Clear
1:15 PM 51.8 °F - 32.0 °F 47% 29.98 in 10.0 mi NNW 18.4 mph 23.0 mph N/A   Clear
1:35 PM 51.8 °F - 32.0 °F 47% 29.97 in 10.0 mi NNW 19.6 mph - N/A   Clear
1:55 PM 53.6 °F - 33.8 °F 47% 29.97 in 10.0 mi NNW 18.4 mph - N/A   Partly Cloudy
2:15 PM 53.6 °F - 33.8 °F 47% 29.96 in 10.0 mi North 15.0 mph - N/A   Partly Cloudy
2:35 PM 53.6 °F - 33.8 °F 47% 29.95 in 10.0 mi North 16.1 mph 21.9 mph N/A   Clear
2:55 PM 53.6 °F - 33.8 °F 47% 29.95 in 10.0 mi NNW 18.4 mph 23.0 mph N/A   Clear
3:15 PM 55.4 °F - 32.0 °F 41% 29.94 in 10.0 mi North 17.3 mph - N/A   Clear
3:35 PM 55.4 °F - 32.0 °F 41% 29.94 in 10.0 mi North 16.1 mph - N/A   Clear
3:55 PM 55.4 °F - 30.2 °F 38% 29.94 in 10.0 mi NNW 18.4 mph 23.0 mph N/A   Clear
4:15 PM 55.4 °F - 32.0 °F 41% 29.93 in 10.0 mi North 16.1 mph 24.2 mph N/A   Clear
4:35 PM 55.4 °F - 32.0 °F 41% 29.92 in 10.0 mi NW 15.0 mph 25.3 mph N/A   Clear
4:55 PM 55.4 °F - 30.2 °F 38% 29.91 in 10.0 mi NW 20.7 mph - N/A   Clear
5:15 PM 55.4 °F - 30.2 °F 38% 29.91 in 10.0 mi NW 17.3 mph 23.0 mph N/A   Clear
5:35 PM 57.2 °F - 28.4 °F 33% 29.91 in 10.0 mi NNW 16.1 mph 23.0 mph N/A   Clear
5:55 PM 57.2 °F - 28.4 °F 33% 29.91 in 10.0 mi NNW 16.1 mph - N/A   Clear
6:15 PM 55.4 °F - 30.2 °F 38% 29.91 in 10.0 mi NW 15.0 mph - N/A   Clear
6:35 PM 55.4 °F - 30.2 °F 38% 29.90 in 10.0 mi NNW 11.5 mph - N/A   Clear
6:55 PM 55.4 °F - 32.0 °F 41% 29.89 in 10.0 mi NW 9.2 mph - N/A   Clear
7:15 PM 55.4 °F - 32.0 °F 41% 29.88 in 10.0 mi NW 6.9 mph - N/A   Clear
7:35 PM 55.4 °F - 33.8 °F 44% 29.87 in 10.0 mi WNW 4.6 mph - N/A   Clear
7:55 PM 55.4 °F - 35.6 °F 47% 29.87 in 10.0 mi West 3.5 mph - N/A   Scattered Clouds
8:15 PM 53.6 °F - 33.8 °F 47% 29.86 in 10.0 mi WSW 5.8 mph - N/A   Mostly Cloudy
8:35 PM 51.8 °F - 33.8 °F 50% 29.84 in 10.0 mi SSW 6.9 mph - N/A   Mostly Cloudy
8:55 PM 50.0 °F - 30.2 °F 47% 29.84 in 10.0 mi SSW 8.1 mph - N/A   Overcast
9:15 PM 50.0 °F - 30.2 °F 47% 29.83 in 10.0 mi SW 8.1 mph - N/A   Overcast
9:35 PM 50.0 °F - 30.2 °F 47% 29.83 in 10.0 mi SSW 6.9 mph - N/A   Mostly Cloudy
9:55 PM 48.2 °F - 32.0 °F 54% 29.82 in 10.0 mi SW 6.9 mph - N/A   Overcast
10:15 PM 48.2 °F - 32.0 °F 54% 29.80 in 10.0 mi SSW 9.2 mph - N/A   Overcast
10:35 PM 50.0 °F - 30.2 °F 47% 29.78 in 10.0 mi South 10.4 mph - N/A   Overcast
10:55 PM 50.0 °F - 32.0 °F 50% 29.76 in 10.0 mi SSW 9.2 mph - N/A   Overcast
11:15 PM 51.8 °F - 32.0 °F 47% 29.74 in 10.0 mi SSW 8.1 mph - N/A   Overcast
11:35 PM 50.0 °F - 32.0 °F 50% 29.73 in 10.0 mi SSW 11.5 mph - N/A   Overcast
11:55 PM 51.8 °F - 30.2 °F 44% 29.72 in 10.0 mi SSW 11.5 mph - N/A   Overcast